Regional Weather Roundup
Issued by NWS State College, PA

Home | Current Version | Previous Version | Text Only | Print | Product List | Glossary Off
Versions: 1 2 3 4 5 6 7 8 9 10 11 12 13 14 15 16 17 18 19 20 21 22 23 24 25 26 27 28 29 30 31 32 33 34 35 36 37 38 39 40 41 42 43 44 45 46 47 48 49 50

751
ASUS41 KCTP 170610
RWRCTP

REGIONAL WEATHER ROUNDUP
NATIONAL WEATHER SERVICE STATE COLLEGE PA
200 AM EDT TUE OCT 17 2017

Note: "fair" indicates few or no clouds below 12,000 feet with no
significant weather and/or obstructions to visibility.

* = STATION THAT DOES NOT REPORT PRECIPITATION /E.G. RAIN...SNOW...ETC/
    THUNDER OR FOG.

PAZ002>004-007>009-013>016-020>023-029>032-170700-
WESTERN PENNSYLVANIA

CITY           SKY/WX    TMP DP  RH WIND       PRES   REMARKS
ERIE           CLEAR     40  34  79 S7        30.28S
MEADVILLE      CLEAR     39  34  82 S5        30.28R
FRANKLIN*      CLEAR     35  33  92 SW3       30.29R
NEW CASTLE     FAIR      32  31  96 CALM      30.31R
BEAVER COUNTY  NOT AVBL
BUTLER*        CLEAR     36  33  89 CALM      30.30R
PITTSBURGH INT CLEAR     38  35  89 CALM      30.29S
PITTSBURGH     CLEAR     44  31  60 CALM      30.28S
INDIANA*       CLEAR     36  36 100 CALM      30.31S
LATROBE        CLEAR     37  37 100 CALM      30.30S
WASHINGTON CO* CLEAR     36  35  96 CALM      30.33R
$$

PAZ004>006-010>012-017>019-024>028-033>037-041-042-045-046-049>053-170700-
CENTRAL PENNSYLVANIA

CITY           SKY/WX    TMP DP  RH WIND       PRES   REMARKS
BRADFORD       CLEAR     28  27  96 SE3       30.25S
DUBOIS         CLEAR     33  29  85 CALM      30.26S
CLEARFIELD     NOT AVBL
JOHNSTOWN      CLEAR     39  30  70 NW5       30.26R
ALTOONA        CLEAR     41  33  73 CALM      30.28R
STATE COLLEGE  CLEAR     37  32  80 CALM      30.27S
WILLIAMSPORT   CLEAR     39  35  86 NW3       30.28R
SELINSGROVE    CLEAR     38  36  92 CALM      30.30R
FT INDIANTOWN  CLEAR     38  37  92 N3        30.27S
CAPITAL CITY   CLEAR     44  34  67 CALM      30.28R
HARRISBURG     CLEAR     45  35  68 NW6       30.27S
YORK           CLEAR     40  37  89 CALM      30.27S
$$

PAZ038>040-043-044-047-048-054-055-060>062-067>071-170700-
EASTERN PENNSYLVANIA

CITY           SKY/WX    TMP DP  RH WIND       PRES   REMARKS
SCRANTON       CLEAR     38  32  79 VRB3      30.26R
MOUNT POCONO   CLEAR     34  29  82 NW10      30.20S
ALLENTOWN      CLEAR     41  31  67 CALM      30.27R
QUAKERTOWN*    CLEAR     39  32  75 NW3       30.26F
READING        CLEAR     42  37  82 CALM      30.26S
LANCASTER      CLEAR     44  35  70 N5        30.27S
COATESVILLE    CLEAR     41  37  87 CALM      30.27S
POTTSTOWN      CLEAR     41  33  73 N5        30.28S
BLUE BELL      CLEAR     36  36 100 CALM      30.28S
DOYLESTOWN     CLEAR     41  31  67 N3        30.25S
WILLOW GROVE   NOT AVBL
NORTH PHILA    CLEAR     45  33  63 N7        30.28R
PHILADELPHIA   CLEAR     46  35  65 N3        30.28R
$$




USA.gov is the U.S. government's official web portal to all federal, state and local government web resources and services.